GW2924 Weather Reports


Display with metric or nautical units.
time (UTC)temp
F
wind
direction
speed
MPH
gust
MPH
rain 1hr
in
rain 24hr
in
rain mn
in
humidity
%
barometer
mb
20260505230557 49 256 4.0 8.0 0.00 0.00 0.00 41 1010.3
20260505230120 49 224 2.0 6.0 0.00 0.00 0.00 40 1010.3
20260505225556 49 287 2.0 9.0 0.00 0.00 0.00 41 1010.3
20260505225056 50 262 2.0 9.0 0.00 0.00 0.00 39 1010.3
20260505224555 49 298 6.0 9.0 0.00 0.00 0.00 41 1010.4
20260505224054 48 277 4.0 8.0 0.00 0.00 0.00 41 1010.4
20260505223553 48 300 4.0 8.0 0.00 0.00 0.00 43 1010.5
20260505223057 48 293 4.0 8.0 0.00 0.00 0.00 42 1010.4
20260505222553 48 294 4.0 8.0 0.00 0.00 0.00 43 1010.4
20260505222053 48 280 3.0 9.0 0.00 0.00 0.00 42 1010.5
20260505221602 49 307 5.0 9.0 0.00 0.00 0.00 41 1010.4
20260505221054 49 300 5.0 9.0 0.00 0.00 0.00 40 1010.4
20260505220553 49 295 4.0 9.0 0.00 0.00 0.00 43 1010.4
20260505215553 49 293 5.0 10.0 0.00 0.00 0.00 42 1010.4
20260505215053 50 281 5.0 13.0 0.00 0.00 0.00 42 1010.3
20260505214557 50 195 6.0 13.0 0.00 0.00 0.00 43 1010.4
20260505214052 50 310 5.0 9.0 0.00 0.00 0.00 42 1010.4
20260505213552 50 311 4.0 10.0 0.00 0.00 0.00 41 1010.4
20260505213100 50 290 5.0 11.0 0.00 0.00 0.00 44 1010.5
20260505212553 50 210 4.0 11.0 0.00 0.00 0.00 43 1010.5
20260505212053 50 33 3.0 11.0 0.00 0.00 0.00 42 1010.4
20260505211602 50 320 5.0 11.0 0.00 0.00 0.00 41 1010.6
20260505211055 50 292 5.0 9.0 0.00 0.00 0.00 39 1010.6
20260505210554 50 266 3.0 10.0 0.00 0.00 0.00 39 1010.5
20260505210106 50 295 4.0 10.0 0.00 0.00 0.00 42 1010.7
20260505205552 49 304 4.0 10.0 0.00 0.00 0.00 43 1010.6
20260505205054 49 247 4.0 9.0 0.00 0.00 0.00 46 1010.6
20260505204605 48 266 5.0 9.0 0.00 0.00 0.00 43 1010.6
20260505204054 49 294 5.0 8.0 0.00 0.00 0.00 44 1010.7
20260505203556 49 299 5.0 8.0 0.00 0.00 0.00 43 1010.7
20260505203107 49 274 2.0 8.0 0.00 0.00 0.00 46 1010.7
20260505202553 49 292 3.0 11.0 0.00 0.00 0.00 43 1010.8
20260505202053 50 302 4.0 11.0 0.00 0.00 0.00 40 1010.9
20260505201557 50 247 5.0 10.0 0.00 0.00 0.00 43 1010.9
20260505201057 50 292 5.0 10.0 0.00 0.00 0.00 44 1010.8
20260505200553 50 259 5.0 10.0 0.00 0.00 0.00 43 1010.9
20260505200110 49 309 4.0 9.0 0.00 0.00 0.00 44 1011.0
20260505195556 49 293 4.0 9.0 0.00 0.00 0.00 43 1011.1
20260505195056 48 319 5.0 9.0 0.00 0.00 0.00 44 1011.0
20260505194600 48 290 4.0 11.0 0.00 0.00 0.00 45 1011.0
20260505194052 48 240 4.0 11.0 0.00 0.00 0.00 45 1011.0
20260505193552 49 257 5.0 10.0 0.00 0.00 0.00 47 1011.0
20260505193104 49 297 4.0 9.0 0.00 0.00 0.00 45 1011.1
20260505192557 48 314 5.0 9.0 0.00 0.00 0.00 46 1011.1
20260505192056 48 236 4.0 9.0 0.00 0.00 0.00 45 1011.0
20260505191607 48 187 6.0 10.0 0.00 0.00 0.00 44 1011.3
20260505191052 48 297 5.0 10.0 0.00 0.00 0.00 47 1011.2
20260505190553 48 307 4.0 10.0 0.00 0.00 0.00 43 1011.1
20260505190056 49 324 3.0 10.0 0.00 0.00 0.00 39 1011.0
20260505185553 50 300 3.0 8.0 0.00 0.00 0.00 41 1011.0
20260505185053 50 267 3.0 6.0 0.00 0.00 0.00 41 1011.2
20260505184557 49 217 3.0 7.0 0.00 0.00 0.00 44 1011.2
20260505184054 48 303 3.0 9.0 0.00 0.00 0.00 42 1011.3
20260505183552 48 304 4.0 9.0 0.00 0.00 0.00 41 1011.2
20260505183056 47 309 4.0 9.0 0.00 0.00 0.00 41 1011.3
20260505182555 48 310 4.0 9.0 0.00 0.00 0.00 42 1011.1
20260505182055 48 305 5.0 13.0 0.00 0.00 0.00 42 1011.1
20260505181558 48 218 4.0 13.0 0.00 0.00 0.00 41 1011.0
20260505181055 48 281 3.0 8.0 0.00 0.00 0.00 43 1011.0
20260505180553 47 306 3.0 8.0 0.00 0.00 0.00 42 1010.9
20260505180054 47 311 4.0 14.0 0.00 0.00 0.00 42 1011.0
20260505175553 47 297 6.0 14.0 0.00 0.00 0.00 40 1010.9
20260505175054 48 217 5.0 14.0 0.00 0.00 0.00 39 1011.0
20260505174557 49 308 3.0 8.0 0.00 0.00 0.00 40 1010.9
20260505174053 49 276 3.0 7.0 0.00 0.00 0.00 43 1010.9
20260505173552 48 279 2.0 6.0 0.00 0.00 0.00 41 1010.9
20260505173100 48 307 3.0 6.0 0.00 0.00 0.00 40 1011.0
20260505172552 48 316 2.0 8.0 0.00 0.00 0.00 44 1011.0
20260505172052 47 281 3.0 9.0 0.00 0.00 0.00 42 1011.1
20260505171556 47 262 3.0 9.0 0.00 0.00 0.00 42 1011.1
20260505171053 48 295 4.0 9.0 0.00 0.00 0.00 42 1011.1
20260505170552 48 305 4.0 9.0 0.00 0.00 0.00 44 1011.0
20260505170108 48 317 3.0 9.0 0.00 0.00 0.00 43 1011.0
20260505165552 47 235 3.0 13.0 0.00 0.00 0.00 41 1011.2
20260505165052 47 281 4.0 13.0 0.00 0.00 0.00 40 1011.0
20260505164555 48 300 4.0 8.0 0.00 0.00 0.00 39 1011.0
20260505164056 47 281 4.0 8.0 0.00 0.00 0.00 43 1011.1
20260505163553 47 293 3.0 8.0 0.00 0.00 0.00 46 1010.9
20260505163102 47 319 3.0 9.0 0.00 0.00 0.00 42 1011.0
20260505162552 48 330 4.0 9.0 0.00 0.00 0.00 43 1011.0
20260505162053 47 307 3.0 6.0 0.00 0.00 0.00 42 1011.1
20260505161607 47 309 2.0 6.0 0.00 0.00 0.00 42 1011.2
20260505161053 47 291 3.0 7.0 0.00 0.00 0.00 40 1011.1
20260505160553 48 281 2.0 10.0 0.00 0.00 0.00 43 1011.1
20260505153057 46 288 3.0 11.0 0.00 0.00 0.00 45 1011.0
20260505152553 46 280 4.0 11.0 0.00 0.00 0.00 43 1010.9
20260505152053 46 272 2.0 11.0 0.00 0.00 0.00 49 1010.9
20260505151556 46 304 2.0 10.0 0.00 0.00 0.00 47 1010.8
20260505151053 46 293 4.0 10.0 0.00 0.00 0.00 46 1010.8
20260505150552 46 259 3.0 7.0 0.00 0.00 0.00 47 1010.9
20260505150104 45 290 3.0 10.0 0.00 0.00 0.00 46 1010.9
20260505140553 44 297 1.0 4.0 0.00 0.00 0.00 53 1010.8
20260505130112 41 283 1.0 4.0 0.00 0.00 0.00 61 1010.3
20260505124558 40 307 1.0 4.0 0.00 0.00 0.00 65 1010.2
20260505124057 40 296 1.0 4.0 0.00 0.00 0.00 66 1010.1
20260505123556 40 285 1.0 2.0 0.00 0.00 0.00 66 1010.1
20260505123102 39 295 1.0 2.0 0.00 0.00 0.00 67 1010.0
20260505122556 39 0 1.0 3.0 0.00 0.00 0.00 69 1009.9
20260505122056 39 283 1.0 3.0 0.00 0.00 0.00 69 1009.9
20260505121559 38 0 0.0 3.0 0.00 0.00 0.00 69 1009.8
20260505121057 38 239 1.0 2.0 0.00 0.00 0.00 70 1009.8
20260505120556 37 243 1.0 2.0 0.00 0.00 0.00 70 1009.7
20260505120109 37 222 0.0 2.0 0.00 0.00 0.00 70 1009.6
20260505115556 37 0 1.0 2.0 0.00 0.00 0.00 70 1009.5
20260505115057 37 0 0.0 1.0 0.00 0.00 0.00 70 1009.5
20260505114556 37 0 0.0 1.0 0.00 0.00 0.00 69 1009.4
20260505114057 36 186 0.0 1.0 0.00 0.00 0.00 71 1009.1
20260505113557 36 198 0.0 1.0 0.00 0.00 0.00 71 1009.0
20260505113118 36 250 0.0 1.0 0.00 0.00 0.00 72 1008.9
20260505112556 35 0 0.0 1.0 0.00 0.00 0.00 73 1008.8
20260505112056 35 0 0.0 1.0 0.00 0.00 0.00 73 1008.7
20260505111557 34 0 0.0 2.0 0.00 0.00 0.00 72 1008.6
20260505111056 34 240 0.0 2.0 0.00 0.00 0.00 73 1008.3
20260505110600 34 261 0.0 2.0 0.00 0.00 0.00 73 1008.3
20260505110105 34 248 0.0 2.0 0.00 0.00 0.00 73 1008.1
20260505102053 34 301 1.0 2.0 0.00 0.00 0.00 74 1007.9
20260505101558 33 0 1.0 2.0 0.00 0.00 0.00 74 1008.0
20260505101051 33 265 0.0 2.0 0.00 0.00 0.00 75 1007.9
20260505100553 33 0 0.0 1.0 0.00 0.00 0.00 75 1007.8
20260505100055 33 246 0.0 1.0 0.00 0.00 0.00 75 1007.9
20260505095552 33 0 0.0 1.0 0.00 0.00 0.00 75 1007.8
20260505095053 33 218 0.0 2.0 0.00 0.00 0.00 75 1007.8
20260505094625 33 203 0.0 2.0 0.00 0.00 0.00 75 1007.9
20260505094052 33 221 0.0 2.0 0.00 0.00 0.00 76 1007.8
20260505093552 32 200 0.0 2.0 0.00 0.00 0.00 77 1007.7
20260505093059 32 0 0.0 1.0 0.00 0.00 0.00 78 1007.7
20260505092552 31 193 0.0 2.0 0.00 0.00 0.00 78 1007.6
20260505092052 31 0 0.0 2.0 0.00 0.00 0.00 78 1007.6
20260505091605 31 200 0.0 2.0 0.00 0.00 0.00 78 1007.7
20260505091053 31 158 0.0 1.0 0.00 0.00 0.00 77 1007.7
20260505090552 32 0 0.0 1.0 0.00 0.00 0.00 77 1007.5
20260505085553 32 184 0.0 2.0 0.00 0.00 0.00 76 1007.5
20260505085052 32 0 1.0 2.0 0.00 0.00 0.00 75 1007.4
20260505084558 33 173 0.0 1.0 0.00 0.00 0.00 74 1007.4
20260505084051 33 0 0.0 2.0 0.00 0.00 0.00 73 1007.3
20260505083553 34 200 0.0 2.0 0.00 0.00 0.00 72 1007.1
20260505083102 35 191 0.0 2.0 0.00 0.00 0.00 71 1007.0
20260505082551 35 187 0.0 2.0 0.00 0.00 0.00 70 1006.9
20260505082051 36 0 0.0 2.0 0.00 0.00 0.00 69 1007.0
20260505081602 36 0 0.0 2.0 0.00 0.00 0.00 68 1006.8
20260505081051 36 280 0.0 2.0 0.00 0.00 0.00 68 1006.8
20260505080555 36 283 0.0 2.0 0.00 0.00 0.00 67 1006.8
20260505080056 36 323 1.0 3.0 0.00 0.00 0.00 67 1006.9
20260505075554 37 0 1.0 3.0 0.00 0.00 0.00 67 1006.9
20260505075054 37 319 1.0 3.0 0.00 0.00 0.00 66 1006.9
20260505074559 37 284 1.0 4.0 0.00 0.00 0.00 65 1006.8
20260505074055 37 309 1.0 4.0 0.00 0.00 0.00 65 1006.6
20260505073552 38 311 1.0 4.0 0.00 0.00 0.00 65 1006.7
20260505073103 38 313 1.0 4.0 0.00 0.00 0.00 64 1006.6
20260505072554 38 285 1.0 4.0 0.00 0.00 0.00 64 1006.7
20260505072059 38 312 1.0 4.0 0.00 0.00 0.00 64 1006.7
20260505071554 38 305 2.0 3.0 0.00 0.00 0.00 64 1006.7
20260505071055 38 302 2.0 4.0 0.00 0.00 0.00 64 1006.7
20260505070556 38 314 2.0 4.0 0.00 0.00 0.00 64 1006.8
20260505070055 38 305 2.0 4.0 0.00 0.00 0.00 63 1006.9
20260505065557 39 276 1.0 4.0 0.00 0.00 0.00 63 1006.9
20260505065058 39 294 2.0 4.0 0.00 0.00 0.00 63 1006.8
20260505064555 39 298 1.0 4.0 0.00 0.00 0.00 63 1006.8
20260505064056 39 307 2.0 3.0 0.00 0.00 0.00 62 1006.8
20260505063555 39 317 2.0 3.0 0.00 0.00 0.00 62 1006.8
20260505063059 39 307 1.0 3.0 0.00 0.00 0.00 62 1006.9
20260505062556 40 285 2.0 4.0 0.00 0.00 0.00 62 1006.8
20260505062057 40 309 2.0 4.0 0.00 0.00 0.00 61 1006.9
20260505061557 40 316 2.0 4.0 0.00 0.00 0.00 60 1006.8
20260505061056 40 298 2.0 5.0 0.00 0.00 0.00 61 1006.8
20260505060556 40 300 2.0 5.0 0.00 0.00 0.00 61 1006.9
20260505060059 39 319 2.0 4.0 0.00 0.00 0.00 62 1006.8
20260505055556 39 291 1.0 4.0 0.00 0.00 0.00 62 1006.8
20260505055058 39 296 2.0 4.0 0.00 0.00 0.00 62 1006.8
20260505054559 38 279 1.0 4.0 0.00 0.00 0.00 64 1006.9
20260505054056 38 226 1.0 4.0 0.00 0.00 0.00 64 1006.7
20260505053557 37 252 2.0 4.0 0.00 0.00 0.00 64 1006.7
20260505053059 37 253 2.0 3.0 0.00 0.00 0.00 64 1006.8
20260505052555 37 236 2.0 3.0 0.00 0.00 0.00 63 1006.8
20260505052053 37 232 2.0 3.0 0.00 0.00 0.00 63 1006.8
20260505051601 37 226 1.0 2.0 0.00 0.00 0.00 63 1006.8
20260505051054 37 230 1.0 2.0 0.00 0.00 0.00 63 1006.7
20260505050554 38 234 1.0 2.0 0.00 0.00 0.00 62 1006.6
20260505041559 39 247 1.0 2.0 0.00 0.00 0.00 61 1006.8
20260505041056 39 221 0.0 2.0 0.00 0.00 0.00 60 1006.7
20260505040554 40 193 0.0 2.0 0.00 0.00 0.00 60 1006.7
20260505040104 41 0 0.0 2.0 0.00 0.00 0.00 58 1006.7
20260505035554 41 295 1.0 2.0 0.00 0.00 0.00 56 1006.7
20260505035053 41 308 1.0 2.0 0.00 0.00 0.00 56 1006.8
20260505034553 41 301 0.0 2.0 0.00 0.00 0.00 55 1006.7
20260505034053 42 293 0.0 2.0 0.00 0.00 0.00 55 1006.8
20260505033553 42 295 1.0 2.0 0.00 0.00 0.00 54 1006.7
20260505033057 42 257 1.0 4.0 0.00 0.00 0.00 53 1006.8
20260505032556 43 298 1.0 4.0 0.00 0.00 0.00 52 1006.7
20260505032053 43 294 2.0 4.0 0.00 0.00 0.00 51 1006.8
20260505031601 44 288 2.0 4.0 0.00 0.00 0.00 51 1006.7
20260505031057 44 283 2.0 5.0 0.00 0.00 0.00 49 1006.7
20260505030555 44 274 2.0 5.0 0.00 0.00 0.00 49 1006.8
20260505030106 45 285 2.0 6.0 0.00 0.00 0.00 48 1006.7
20260505025553 45 289 2.0 6.0 0.00 0.00 0.00 48 1006.7
20260505025054 45 271 3.0 7.0 0.00 0.00 0.00 49 1006.6
20260505024556 45 252 3.0 7.0 0.00 0.00 0.00 49 1006.5
20260505024053 46 301 3.0 8.0 0.00 0.00 0.00 49 1006.4
20260505023553 46 317 4.0 8.0 0.00 0.00 0.00 50 1006.4
20260505023055 46 268 3.0 7.0 0.00 0.00 0.00 50 1006.1
20260505022553 46 287 3.0 7.0 0.00 0.00 0.00 49 1006.0
20260505022053 47 295 4.0 8.0 0.00 0.00 0.00 49 1005.7
20260505021557 47 284 4.0 8.0 0.00 0.00 0.00 49 1005.8
20260505021053 47 306 4.0 8.0 0.00 0.00 0.00 49 1005.6
20260505020557 48 270 4.0 8.0 0.00 0.00 0.00 49 1005.4
20260505020055 48 17 4.0 8.0 0.00 0.00 0.00 48 1005.4
20260505015553 48 243 2.0 7.0 0.00 0.00 0.00 49 1005.2
20260505015057 48 280 3.0 9.0 0.00 0.00 0.00 48 1005.1
20260505014606 48 296 4.0 9.0 0.00 0.00 0.00 47 1005.0
20260505014056 48 284 2.0 8.0 0.00 0.00 0.00 48 1004.9
20260505013555 49 294 3.0 8.0 0.00 0.00 0.00 47 1004.8
20260505013055 49 300 3.0 10.0 0.00 0.00 0.00 47 1004.7
20260505012553 49 306 5.0 10.0 0.00 0.00 0.00 47 1004.7
20260505012053 49 293 5.0 12.0 0.00 0.00 0.00 46 1004.6
20260505011557 50 321 5.0 12.0 0.00 0.00 0.00 46 1004.5
20260505011054 50 312 4.0 8.0 0.00 0.00 0.00 46 1004.4
20260505010553 50 321 4.0 10.0 0.00 0.00 0.00 47 1004.5
20260505010105 50 274 4.0 10.0 0.00 0.00 0.00 46 1004.3
20260505005553 50 305 5.0 10.0 0.00 0.00 0.00 45 1004.1
20260505005053 51 287 5.0 8.0 0.00 0.00 0.00 45 1004.0
20260505004559 51 295 5.0 9.0 0.00 0.00 0.00 46 1004.0
20260505004100 51 233 5.0 9.0 0.00 0.00 0.00 44 1003.9
20260505003552 51 290 5.0 9.0 0.00 0.00 0.00 44 1004.0
20260505003109 52 311 5.0 9.0 0.00 0.00 0.00 44 1003.8
20260505002558 52 239 4.0 9.0 0.00 0.00 0.00 44 1003.7
20260505002053 52 290 4.0 10.0 0.00 0.00 0.00 44 1003.8
20260505001610 52 291 5.0 15.0 0.00 0.00 0.00 46 1003.7
20260505001053 52 263 5.0 15.0 0.00 0.00 0.00 44 1003.6
20260505000553 53 319 6.0 12.0 0.00 0.00 0.00 44 1003.4
20260505000100 53 278 6.0 13.0 0.00 0.00 0.00 44 1003.3
20260504235553 53 290 6.0 15.0 0.00 0.00 0.00 45 1003.4
20260504235053 54 290 5.0 15.0 0.00 0.00 0.00 43 1003.3
20260504234602 54 287 7.0 15.0 0.00 0.00 0.00 43 1003.3
20260504234053 55 296 5.0 12.0 0.00 0.00 0.00 43 1003.1
20260504233553 55 289 5.0 12.0 0.00 0.00 0.00 43 1003.1
20260504233056 55 288 8.0 12.0 0.00 0.00 0.00 43 1003.1
20260504232554 55 309 5.0 11.0 0.00 0.00 0.00 42 1003.0
20260504232055 55 286 5.0 13.0 0.00 0.00 0.00 42 1003.0
20260504231559 56 261 5.0 13.0 0.00 0.00 0.00 43 1002.9
20260504231053 56 288 6.0 12.0 0.00 0.00 0.00 42 1002.9